| time (UTC) | temp F | wind direction | speed MPH | gust MPH | rain 1hr in | rain 24hr in | rain mn in | humidity % | barometer mb |
| 20260901131245 | 76 | 337 | 0.0 | 0.0 | 0.00 | 0.00 | 0.02 | 85 | 1012.6 |
| 20260901130737 | 76 | 337 | 0.0 | 0.0 | 0.00 | 0.00 | 0.02 | 85 | 1012.6 |
| 20260901130143 | 76 | 336 | 0.0 | 0.0 | 0.00 | 0.00 | 0.02 | 85 | 1012.6 |
| 20260901125741 | 76 | 337 | 0.0 | 0.0 | 0.00 | 0.00 | 0.02 | 84 | 1012.7 |
| 20260901125252 | 76 | 337 | 0.0 | 0.0 | 0.00 | 0.00 | 0.02 | 84 | 1012.7 |
| 20260901123736 | 76 | 338 | 0.0 | 0.0 | 0.00 | 0.00 | 0.02 | 83 | 1012.6 |
| 20260901123254 | 77 | 337 | 0.0 | 0.0 | 0.00 | 0.00 | 0.01 | 83 | 1012.7 |
| 20260901123138 | 77 | 329 | 0.0 | 0.0 | 0.00 | 0.00 | 0.01 | 83 | 1012.7 |
| 20260901122243 | 77 | 327 | 0.0 | 0.0 | 0.00 | 0.00 | 0.01 | 82 | 1012.7 |
| 20260901121249 | 77 | 327 | 0.0 | 0.0 | 0.00 | 0.00 | 0.01 | 81 | 1012.8 |
| 20260901120250 | 77 | 324 | 0.0 | 0.0 | 0.00 | 0.00 | 0.01 | 81 | 1012.8 |
| 20260901120136 | 77 | 323 | 0.0 | 0.0 | 0.00 | 0.00 | 0.01 | 81 | 1012.8 |
| 20260901115736 | 77 | 323 | 0.0 | 0.0 | 0.00 | 0.00 | 0.00 | 80 | 1012.7 |
| 20260901115246 | 78 | 324 | 0.0 | 0.0 | 0.00 | 0.00 | 0.00 | 80 | 1012.7 |
| 20260901114754 | 78 | 324 | 0.0 | 0.0 | 0.00 | 0.00 | 0.00 | 80 | 1012.7 |
| 20260901114243 | 78 | 323 | 0.0 | 0.0 | 0.00 | 0.00 | 0.00 | 80 | 1012.7 |
| 20260901113142 | 78 | 323 | 0.0 | 0.0 | 0.00 | 0.00 | 0.00 | 79 | 1012.7 |
| 20260901112745 | 78 | 323 | 0.0 | 0.0 | 0.00 | 0.00 | 0.00 | 78 | 1012.7 |
| 20260901112235 | 78 | 323 | 0.0 | 0.0 | 0.00 | 0.00 | 0.00 | 78 | 1012.7 |
| 20260901111751 | 78 | 324 | 0.0 | 0.0 | 0.00 | 0.00 | 0.00 | 77 | 1012.7 |
| 20260901111242 | 78 | 323 | 0.0 | 0.0 | 0.00 | 0.00 | 0.00 | 77 | 1012.6 |
| 20260901110736 | 78 | 324 | 0.0 | 0.0 | 0.00 | 0.00 | 0.00 | 77 | 1012.6 |
| 20260901110250 | 78 | 323 | 0.0 | 0.0 | 0.00 | 0.00 | 0.00 | 77 | 1012.6 |
| 20260901110138 | 78 | 323 | 0.0 | 0.0 | 0.00 | 0.00 | 0.00 | 76 | 1012.6 |
| 20260901105735 | 78 | 323 | 0.0 | 0.0 | 0.00 | 0.00 | 0.00 | 76 | 1012.5 |
| 20260901105245 | 78 | 324 | 0.0 | 0.0 | 0.00 | 0.00 | 0.00 | 76 | 1012.5 |
| 20260901104237 | 79 | 323 | 0.0 | 0.0 | 0.00 | 0.00 | 0.00 | 75 | 1012.3 |
| 20260901103746 | 79 | 323 | 0.0 | 0.0 | 0.00 | 0.00 | 0.00 | 75 | 1012.3 |
| 20260901103246 | 79 | 323 | 0.0 | 0.0 | 0.00 | 0.00 | 0.00 | 75 | 1012.3 |
| 20260901103133 | 79 | 323 | 0.0 | 0.0 | 0.00 | 0.00 | 0.00 | 74 | 1012.3 |
| 20260901102735 | 79 | 323 | 0.0 | 0.0 | 0.00 | 0.00 | 0.00 | 74 | 1012.2 |
| 20260901102245 | 79 | 323 | 0.0 | 0.0 | 0.00 | 0.00 | 0.00 | 74 | 1012.2 |
| 20260901101741 | 79 | 323 | 0.0 | 0.0 | 0.00 | 0.00 | 0.00 | 74 | 1012.2 |
| 20260901101251 | 79 | 323 | 0.0 | 0.0 | 0.00 | 0.00 | 0.00 | 73 | 1012.0 |
| 20260901100745 | 79 | 330 | 0.0 | 0.0 | 0.00 | 0.00 | 0.00 | 73 | 1012.0 |
| 20260901100243 | 79 | 329 | 0.0 | 0.0 | 0.00 | 0.00 | 0.00 | 72 | 1012.0 |
| 20260901100130 | 79 | 330 | 0.0 | 0.0 | 0.00 | 0.00 | 0.00 | 72 | 1012.0 |
| 20260901095749 | 79 | 329 | 0.0 | 0.0 | 0.00 | 0.00 | 0.00 | 71 | 1011.9 |
| 20260901095240 | 79 | 329 | 0.0 | 0.0 | 0.00 | 0.00 | 0.00 | 71 | 1011.9 |
| 20260901094736 | 79 | 326 | 0.0 | 0.0 | 0.00 | 0.00 | 0.00 | 71 | 1011.9 |
| 20260901094245 | 79 | 329 | 0.0 | 0.0 | 0.00 | 0.00 | 0.00 | 71 | 1011.8 |
| 20260901093736 | 79 | 327 | 0.0 | 0.0 | 0.00 | 0.00 | 0.00 | 70 | 1011.8 |
| 20260901093254 | 79 | 327 | 0.0 | 0.0 | 0.00 | 0.00 | 0.00 | 70 | 1011.8 |
| 20260901092744 | 79 | 327 | 0.0 | 0.0 | 0.00 | 0.00 | 0.00 | 70 | 1011.7 |
| 20260901092235 | 79 | 322 | 0.0 | 0.0 | 0.00 | 0.00 | 0.00 | 69 | 1011.7 |
| 20260901091749 | 80 | 330 | 0.0 | 0.0 | 0.00 | 0.00 | 0.00 | 69 | 1011.7 |
| 20260901091235 | 80 | 331 | 0.0 | 0.0 | 0.00 | 0.00 | 0.00 | 69 | 1011.7 |
| 20260901090735 | 80 | 324 | 0.0 | 0.0 | 0.00 | 0.00 | 0.00 | 69 | 1011.7 |
| 20260901090252 | 80 | 322 | 0.0 | 0.0 | 0.00 | 0.00 | 0.00 | 68 | 1011.7 |
| 20260901090136 | 80 | 323 | 0.0 | 0.0 | 0.00 | 0.00 | 0.00 | 68 | 1011.7 |
| 20260901085739 | 80 | 323 | 0.0 | 0.0 | 0.00 | 0.00 | 0.00 | 68 | 1011.6 |
| 20260901085249 | 80 | 323 | 0.0 | 0.0 | 0.00 | 0.00 | 0.00 | 68 | 1011.6 |
| 20260901084745 | 80 | 322 | 0.0 | 0.0 | 0.00 | 0.00 | 0.00 | 68 | 1011.6 |
| 20260901084235 | 80 | 323 | 0.0 | 0.0 | 0.00 | 0.00 | 0.00 | 67 | 1011.6 |
| 20260901083300 | 80 | 323 | 0.0 | 0.0 | 0.00 | 0.00 | 0.00 | 67 | 1011.6 |
| 20260901082240 | 81 | 323 | 0.0 | 0.0 | 0.00 | 0.00 | 0.00 | 66 | 1011.6 |
| 20260901081735 | 81 | 324 | 0.0 | 0.0 | 0.00 | 0.00 | 0.00 | 66 | 1011.6 |
| 20260901080748 | 81 | 330 | 0.0 | 0.0 | 0.00 | 0.00 | 0.00 | 65 | 1011.6 |
| 20260901080248 | 81 | 334 | 0.0 | 0.0 | 0.00 | 0.00 | 0.00 | 65 | 1011.6 |
| 20260901080131 | 81 | 338 | 0.0 | 0.0 | 0.00 | 0.00 | 0.00 | 65 | 1011.6 |
| 20260901075754 | 81 | 341 | 0.0 | 0.0 | 0.00 | 0.00 | 0.00 | 65 | 1011.6 |
| 20260901075243 | 81 | 341 | 0.0 | 0.0 | 0.00 | 0.00 | 0.00 | 65 | 1011.6 |
| 20260901074738 | 81 | 347 | 0.0 | 0.0 | 0.00 | 0.00 | 0.00 | 64 | 1011.6 |
| 20260901074250 | 81 | 350 | 0.0 | 0.0 | 0.00 | 0.00 | 0.00 | 64 | 1011.5 |
| 20260901073236 | 82 | 19 | 0.0 | 0.0 | 0.00 | 0.00 | 0.00 | 63 | 1011.5 |
| 20260901073142 | 82 | 1 | 0.0 | 0.0 | 0.00 | 0.00 | 0.00 | 63 | 1011.5 |
| 20260901072745 | 82 | 2 | 0.0 | 0.0 | 0.00 | 0.00 | 0.00 | 63 | 1011.5 |
| 20260901072256 | 82 | 11 | 0.0 | 0.0 | 0.00 | 0.00 | 0.00 | 62 | 1011.5 |
| 20260901071750 | 82 | 12 | 0.0 | 0.0 | 0.00 | 0.00 | 0.00 | 62 | 1011.5 |
| 20260901071240 | 82 | 12 | 0.0 | 0.0 | 0.00 | 0.00 | 0.00 | 62 | 1011.5 |
| 20260901070754 | 82 | 17 | 0.0 | 0.0 | 0.00 | 0.00 | 0.00 | 61 | 1011.5 |
| 20260901070236 | 82 | 357 | 0.0 | 0.0 | 0.00 | 0.00 | 0.00 | 61 | 1011.5 |
| 20260901070142 | 82 | 357 | 0.0 | 0.0 | 0.00 | 0.00 | 0.00 | 61 | 1011.5 |
| 20260901065745 | 82 | 355 | 0.0 | 0.0 | 0.00 | 0.00 | 0.00 | 61 | 1011.6 |
| 20260901065239 | 82 | 355 | 0.0 | 0.0 | 0.00 | 0.00 | 0.00 | 60 | 1011.6 |
| 20260901064735 | 82 | 357 | 0.0 | 0.0 | 0.00 | 0.00 | 0.00 | 60 | 1011.6 |
| 20260901064244 | 82 | 355 | 0.0 | 0.0 | 0.00 | 0.00 | 0.00 | 60 | 1011.5 |
| 20260901063255 | 83 | 355 | 0.0 | 0.0 | 0.00 | 0.00 | 0.00 | 59 | 1011.5 |
| 20260901062744 | 83 | 1 | 0.0 | 0.0 | 0.00 | 0.00 | 0.00 | 59 | 1011.6 |
| 20260901061752 | 83 | 46 | 0.0 | 0.0 | 0.00 | 0.00 | 0.00 | 59 | 1011.6 |
| 20260901061243 | 83 | 46 | 0.0 | 0.0 | 0.00 | 0.00 | 0.00 | 59 | 1011.6 |
| 20260901060741 | 83 | 49 | 0.0 | 0.0 | 0.00 | 0.00 | 0.00 | 59 | 1011.6 |
| 20260901060239 | 83 | 50 | 0.0 | 0.0 | 0.00 | 0.00 | 0.00 | 59 | 1011.6 |
| 20260901055747 | 83 | 50 | 0.0 | 0.0 | 0.00 | 0.00 | 0.00 | 59 | 1011.7 |
| 20260901055236 | 83 | 53 | 0.0 | 0.0 | 0.00 | 0.00 | 0.00 | 58 | 1011.7 |
| 20260901054749 | 83 | 53 | 0.0 | 0.0 | 0.00 | 0.00 | 0.00 | 58 | 1011.7 |
| 20260901054238 | 83 | 55 | 0.0 | 0.0 | 0.00 | 0.00 | 0.00 | 58 | 1011.6 |
| 20260901053748 | 84 | 48 | 0.0 | 0.0 | 0.00 | 0.00 | 0.00 | 57 | 1011.7 |
| 20260901053252 | 84 | 48 | 0.0 | 0.0 | 0.00 | 0.00 | 0.00 | 57 | 1011.7 |
| 20260901053136 | 84 | 48 | 0.0 | 0.0 | 0.00 | 0.00 | 0.00 | 57 | 1011.7 |
| 20260901052739 | 84 | 48 | 0.0 | 0.0 | 0.00 | 0.00 | 0.00 | 56 | 1011.7 |
| 20260901052249 | 84 | 48 | 0.0 | 0.0 | 0.00 | 0.00 | 0.00 | 57 | 1011.7 |
| 20260901051745 | 84 | 38 | 0.0 | 0.0 | 0.00 | 0.00 | 0.00 | 56 | 1011.7 |
| 20260901051235 | 84 | 38 | 0.0 | 0.0 | 0.00 | 0.00 | 0.00 | 56 | 1011.7 |
| 20260901050139 | 85 | 36 | 0.0 | 0.0 | 0.00 | 0.00 | 0.00 | 56 | 1011.7 |
| 20260901045743 | 85 | 38 | 0.0 | 0.0 | 0.00 | 0.00 | 0.00 | 55 | 1011.7 |
| 20260901045235 | 85 | 79 | 0.0 | 0.0 | 0.00 | 0.00 | 0.00 | 55 | 1011.7 |
| 20260901044749 | 85 | 79 | 0.0 | 0.0 | 0.00 | 0.00 | 0.00 | 55 | 1011.7 |
| 20260901044238 | 85 | 2 | 0.0 | 0.0 | 0.00 | 0.00 | 0.00 | 54 | 1011.9 |
| 20260901043751 | 85 | 4 | 0.0 | 0.0 | 0.00 | 0.00 | 0.00 | 55 | 1011.9 |
| 20260901043249 | 85 | 8 | 0.0 | 0.0 | 0.00 | 0.00 | 0.00 | 56 | 1011.9 |
| 20260901042738 | 85 | 28 | 0.0 | 0.0 | 0.00 | 0.00 | 0.00 | 56 | 1011.8 |
| 20260901042244 | 85 | 21 | 0.0 | 0.0 | 0.00 | 0.00 | 0.00 | 56 | 1011.8 |
| 20260901041235 | 85 | 19 | 0.0 | 0.0 | 0.00 | 0.00 | 0.00 | 55 | 1012.1 |
| 20260901040751 | 85 | 5 | 0.0 | 0.0 | 0.00 | 0.00 | 0.00 | 56 | 1012.1 |
| 20260901040250 | 84 | 8 | 0.0 | 0.0 | 0.00 | 0.00 | 0.00 | 57 | 1012.1 |
| 20260901040134 | 84 | 355 | 0.0 | 0.0 | 0.00 | 0.00 | 0.00 | 58 | 1012.1 |
| 20260901035735 | 84 | 357 | 0.0 | 0.0 | 0.00 | 0.00 | 0.00 | 58 | 1012.1 |
| 20260901035244 | 83 | 354 | 0.0 | 0.0 | 0.00 | 0.00 | 0.00 | 58 | 1012.1 |
| 20260901034743 | 83 | 8 | 0.0 | 0.0 | 0.00 | 0.00 | 0.00 | 59 | 1012.1 |
| 20260901033748 | 83 | 357 | 0.0 | 0.0 | 0.00 | 0.00 | 0.00 | 59 | 1012.2 |
| 20260901033243 | 83 | 1 | 0.0 | 0.0 | 0.00 | 0.00 | 0.00 | 59 | 1012.2 |
| 20260901033131 | 83 | 1 | 0.0 | 0.0 | 0.00 | 0.00 | 0.00 | 59 | 1012.2 |
| 20260901032751 | 82 | 1 | 0.0 | 0.0 | 0.00 | 0.00 | 0.00 | 60 | 1012.3 |
| 20260901032240 | 82 | 48 | 0.0 | 0.0 | 0.00 | 0.00 | 0.00 | 60 | 1012.3 |
| 20260901031735 | 82 | 122 | 0.0 | 0.0 | 0.00 | 0.00 | 0.00 | 60 | 1012.3 |
| 20260901031250 | 82 | 346 | 0.0 | 0.0 | 0.00 | 0.00 | 0.00 | 61 | 1012.4 |
| 20260901030748 | 82 | 331 | 0.0 | 0.0 | 0.00 | 0.00 | 0.00 | 61 | 1012.4 |
| 20260901030137 | 82 | 331 | 0.0 | 0.0 | 0.00 | 0.00 | 0.00 | 61 | 1012.4 |
| 20260901025738 | 82 | 322 | 0.0 | 0.0 | 0.00 | 0.00 | 0.00 | 60 | 1012.4 |
| 20260901025248 | 82 | 331 | 0.0 | 0.0 | 0.00 | 0.00 | 0.00 | 61 | 1012.4 |
| 20260901024738 | 82 | 343 | 0.0 | 0.0 | 0.00 | 0.00 | 0.00 | 61 | 1012.4 |
| 20260901024249 | 82 | 340 | 0.0 | 0.0 | 0.00 | 0.00 | 0.00 | 60 | 1012.5 |
| 20260901023742 | 82 | 341 | 0.0 | 0.0 | 0.00 | 0.00 | 0.00 | 60 | 1012.5 |
| 20260901023241 | 82 | 351 | 0.0 | 0.0 | 0.00 | 0.00 | 0.00 | 60 | 1012.5 |
| 20260901023145 | 82 | 353 | 0.0 | 0.0 | 0.00 | 0.00 | 0.00 | 60 | 1012.5 |
| 20260901022748 | 82 | 18 | 0.0 | 0.0 | 0.00 | 0.00 | 0.00 | 59 | 1012.5 |
| 20260901022239 | 82 | 354 | 0.0 | 0.0 | 0.00 | 0.00 | 0.00 | 59 | 1012.5 |
| 20260901021752 | 82 | 358 | 0.0 | 0.0 | 0.00 | 0.00 | 0.00 | 60 | 1012.5 |
| 20260901021243 | 82 | 58 | 0.0 | 0.0 | 0.00 | 0.00 | 0.00 | 59 | 1012.7 |
| 20260901020738 | 82 | 31 | 0.0 | 0.0 | 0.00 | 0.00 | 0.00 | 61 | 1012.7 |
| 20260901020255 | 81 | 32 | 0.0 | 0.0 | 0.00 | 0.00 | 0.00 | 62 | 1012.7 |
| 20260901015253 | 81 | 330 | 0.0 | 0.0 | 0.00 | 0.00 | 0.00 | 62 | 1013.0 |
| 20260901014747 | 81 | 357 | 0.0 | 0.0 | 0.00 | 0.00 | 0.00 | 61 | 1013.0 |
| 20260901013753 | 81 | 28 | 0.0 | 0.0 | 0.00 | 0.00 | 0.00 | 62 | 1013.2 |
| 20260901013251 | 81 | 31 | 0.0 | 0.0 | 0.00 | 0.00 | 0.00 | 62 | 1013.2 |
| 20260901013134 | 81 | 38 | 0.0 | 0.0 | 0.00 | 0.00 | 0.00 | 62 | 1013.2 |
| 20260901012736 | 81 | 358 | 0.0 | 0.0 | 0.00 | 0.00 | 0.00 | 62 | 1013.1 |
| 20260901011745 | 80 | 34 | 0.0 | 0.0 | 0.00 | 0.00 | 0.00 | 63 | 1013.1 |
| 20260901011254 | 80 | 14 | 0.0 | 0.0 | 0.00 | 0.00 | 0.00 | 64 | 1013.2 |
| 20260901010744 | 80 | 34 | 0.0 | 0.0 | 0.00 | 0.00 | 0.00 | 64 | 1013.2 |
| 20260901010245 | 79 | 336 | 0.0 | 0.0 | 0.00 | 0.00 | 0.00 | 65 | 1013.2 |
| 20260901010129 | 79 | 334 | 0.0 | 0.0 | 0.00 | 0.00 | 0.00 | 65 | 1013.2 |
| 20260901005751 | 79 | 336 | 0.0 | 0.0 | 0.00 | 0.00 | 0.00 | 66 | 1013.3 |
| 20260901005241 | 79 | 358 | 0.0 | 0.0 | 0.00 | 0.00 | 0.00 | 66 | 1013.3 |
| 20260901004736 | 79 | 24 | 0.0 | 0.0 | 0.00 | 0.00 | 0.00 | 66 | 1013.3 |
| 20260901004245 | 79 | 18 | 0.0 | 0.0 | 0.00 | 0.00 | 0.00 | 65 | 1013.2 |
| 20260901003735 | 79 | 7 | 0.0 | 0.0 | 0.00 | 0.00 | 0.00 | 65 | 1013.2 |
| 20260901003141 | 79 | 8 | 0.0 | 0.0 | 0.00 | 0.00 | 0.00 | 66 | 1013.2 |
| 20260901002743 | 79 | 8 | 0.0 | 0.0 | 0.00 | 0.00 | 0.00 | 66 | 1013.3 |
| 20260901002256 | 79 | 8 | 0.0 | 0.0 | 0.00 | 0.00 | 0.00 | 66 | 1013.3 |
| 20260901001743 | 78 | 8 | 0.0 | 0.0 | 0.00 | 0.00 | 0.00 | 67 | 1013.3 |
| 20260901001252 | 78 | 8 | 0.0 | 0.0 | 0.00 | 0.00 | 0.00 | 68 | 1013.3 |
| 20260901000750 | 77 | 7 | 0.0 | 0.0 | 0.00 | 0.00 | 0.00 | 69 | 1013.3 |
| 20260901000249 | 77 | 10 | 0.0 | 0.0 | 0.00 | 0.00 | 0.00 | 69 | 1013.3 |
| 20260901000133 | 77 | 10 | 0.0 | 0.0 | 0.00 | 0.00 | 0.00 | 69 | 1013.3 |
| 20260831235735 | 77 | 24 | 0.0 | 0.0 | 0.00 | 0.00 | 0.00 | 69 | 1013.2 |
| 20260831235244 | 77 | 24 | 0.0 | 0.0 | 0.00 | 0.00 | 0.00 | 69 | 1013.2 |
| 20260831234741 | 77 | 24 | 0.0 | 0.0 | 0.00 | 0.00 | 0.00 | 69 | 1013.2 |
| 20260831234253 | 77 | 354 | 0.0 | 0.0 | 0.00 | 0.00 | 0.00 | 69 | 1013.2 |
| 20260831233741 | 77 | 354 | 0.0 | 0.0 | 0.00 | 0.00 | 0.00 | 69 | 1013.2 |
| 20260831233240 | 77 | 353 | 0.0 | 0.0 | 0.00 | 0.00 | 0.00 | 70 | 1013.2 |
| 20260831233144 | 77 | 323 | 0.0 | 0.0 | 0.00 | 0.00 | 0.00 | 70 | 1013.2 |
| 20260831232239 | 76 | 355 | 0.0 | 0.0 | 0.00 | 0.00 | 0.00 | 70 | 1013.2 |
| 20260831231735 | 76 | 11 | 0.0 | 0.0 | 0.00 | 0.00 | 0.00 | 71 | 1013.2 |
| 20260831230746 | 76 | 12 | 0.0 | 0.0 | 0.00 | 0.00 | 0.00 | 71 | 1013.3 |
| 20260831230246 | 76 | 8 | 0.0 | 0.0 | 0.00 | 0.00 | 0.00 | 71 | 1013.3 |
| 20260831230130 | 76 | 77 | 0.0 | 0.0 | 0.00 | 0.00 | 0.00 | 71 | 1013.3 |
| 20260831225752 | 76 | 357 | 0.0 | 0.0 | 0.00 | 0.00 | 0.00 | 71 | 1013.2 |
| 20260831225242 | 76 | 355 | 0.0 | 0.0 | 0.00 | 0.00 | 0.00 | 72 | 1013.2 |
| 20260831224735 | 75 | 357 | 0.0 | 0.0 | 0.00 | 0.00 | 0.00 | 72 | 1013.2 |
| 20260831223744 | 75 | 12 | 0.0 | 0.0 | 0.00 | 0.00 | 0.00 | 73 | 1013.2 |
| 20260831223239 | 75 | 31 | 0.0 | 0.0 | 0.00 | 0.00 | 0.00 | 74 | 1013.2 |
| 20260831223126 | 75 | 29 | 0.0 | 0.0 | 0.00 | 0.00 | 0.00 | 74 | 1013.2 |
| 20260831222744 | 75 | 35 | 0.0 | 0.0 | 0.00 | 0.00 | 0.00 | 74 | 1013.2 |
| 20260831222234 | 74 | 36 | 0.0 | 0.0 | 0.00 | 0.00 | 0.00 | 74 | 1013.2 |
| 20260831221749 | 74 | 125 | 0.0 | 0.0 | 0.00 | 0.00 | 0.00 | 74 | 1013.2 |
| 20260831221239 | 74 | 24 | 0.0 | 0.0 | 0.00 | 0.00 | 0.00 | 75 | 1013.3 |
| 20260831220237 | 74 | 29 | 0.0 | 0.0 | 0.00 | 0.00 | 0.00 | 76 | 1013.3 |
| 20260831220140 | 74 | 32 | 0.0 | 0.0 | 0.00 | 0.00 | 0.00 | 76 | 1013.3 |
| 20260831215743 | 74 | 34 | 0.0 | 0.0 | 0.00 | 0.00 | 0.00 | 76 | 1013.3 |
| 20260831215235 | 74 | 41 | 0.0 | 0.0 | 0.00 | 0.00 | 0.00 | 76 | 1013.3 |
| 20260831214744 | 73 | 24 | 0.0 | 0.0 | 0.00 | 0.00 | 0.00 | 77 | 1013.3 |
| 20260831213747 | 73 | 14 | 0.0 | 0.0 | 0.00 | 0.00 | 0.00 | 77 | 1013.3 |
| 20260831213245 | 73 | 42 | 0.0 | 0.0 | 0.00 | 0.00 | 0.00 | 77 | 1013.3 |
| 20260831213129 | 73 | 46 | 0.0 | 0.0 | 0.00 | 0.00 | 0.00 | 77 | 1013.3 |
| 20260831212752 | 73 | 46 | 0.0 | 0.0 | 0.00 | 0.00 | 0.00 | 77 | 1013.2 |
| 20260831212243 | 73 | 48 | 0.0 | 0.0 | 0.00 | 0.00 | 0.00 | 78 | 1013.2 |
| 20260831211738 | 73 | 46 | 0.0 | 0.0 | 0.00 | 0.00 | 0.00 | 78 | 1013.2 |
| 20260831211249 | 73 | 45 | 0.0 | 0.0 | 0.00 | 0.00 | 0.00 | 78 | 1013.2 |
| 20260831210748 | 73 | 46 | 0.0 | 0.0 | 0.00 | 0.00 | 0.00 | 78 | 1013.2 |
| 20260831210242 | 73 | 45 | 0.0 | 0.0 | 0.00 | 0.00 | 0.00 | 78 | 1013.2 |
| 20260831210129 | 73 | 50 | 0.0 | 0.0 | 0.00 | 0.00 | 0.00 | 78 | 1013.2 |
| 20260831205747 | 73 | 50 | 0.0 | 0.0 | 0.00 | 0.00 | 0.00 | 78 | 1012.9 |
| 20260831204738 | 73 | 50 | 0.0 | 0.0 | 0.00 | 0.00 | 0.00 | 78 | 1012.9 |
| 20260831204251 | 73 | 50 | 0.0 | 0.0 | 0.00 | 0.00 | 0.00 | 79 | 1012.8 |
| 20260831203135 | 73 | 50 | 0.0 | 0.0 | 0.00 | 0.00 | 0.00 | 79 | 1012.8 |
| 20260831202234 | 73 | 35 | 0.0 | 0.0 | 0.00 | 0.00 | 0.00 | 79 | 1012.8 |
| 20260831201746 | 73 | 34 | 0.0 | 0.0 | 0.00 | 0.00 | 0.00 | 79 | 1012.8 |
| 20260831201237 | 73 | 32 | 0.0 | 0.0 | 0.00 | 0.00 | 0.00 | 79 | 1012.7 |
| 20260831200739 | 73 | 36 | 0.0 | 0.0 | 0.00 | 0.00 | 0.00 | 78 | 1012.7 |
| 20260831200239 | 73 | 38 | 0.0 | 0.0 | 0.00 | 0.00 | 0.00 | 78 | 1012.7 |
| 20260831200143 | 73 | 36 | 0.0 | 0.0 | 0.00 | 0.00 | 0.00 | 78 | 1012.7 |
| 20260831195747 | 73 | 41 | 0.0 | 0.0 | 0.00 | 0.00 | 0.00 | 78 | 1012.8 |
| 20260831195240 | 73 | 19 | 0.0 | 0.0 | 0.00 | 0.00 | 0.00 | 78 | 1012.8 |
| 20260831194753 | 73 | 21 | 0.0 | 0.0 | 0.00 | 0.00 | 0.00 | 78 | 1012.8 |
| 20260831193739 | 73 | 32 | 0.0 | 0.0 | 0.00 | 0.00 | 0.00 | 78 | 1012.8 |
| 20260831193239 | 73 | 38 | 0.0 | 0.0 | 0.00 | 0.00 | 0.00 | 78 | 1012.8 |
| 20260831193143 | 73 | 38 | 0.0 | 0.0 | 0.00 | 0.00 | 0.00 | 78 | 1012.8 |
| 20260831192746 | 73 | 34 | 0.0 | 0.0 | 0.00 | 0.00 | 0.00 | 78 | 1012.8 |
| 20260831192236 | 73 | 34 | 0.0 | 0.0 | 0.00 | 0.00 | 0.00 | 78 | 1012.8 |
| 20260831191748 | 73 | 18 | 0.0 | 0.0 | 0.00 | 0.00 | 0.00 | 78 | 1012.8 |
| 20260831191239 | 73 | 14 | 0.0 | 0.0 | 0.00 | 0.00 | 0.00 | 78 | 1012.8 |
| 20260831190754 | 73 | 14 | 0.0 | 0.0 | 0.00 | 0.00 | 0.00 | 78 | 1012.8 |
| 20260831185748 | 73 | 35 | 0.0 | 0.0 | 0.00 | 0.00 | 0.00 | 77 | 1012.9 |
| 20260831185238 | 73 | 35 | 0.0 | 0.0 | 0.00 | 0.00 | 0.00 | 77 | 1012.9 |
| 20260831184734 | 73 | 34 | 0.0 | 0.0 | 0.00 | 0.00 | 0.00 | 77 | 1012.9 |
| 20260831184245 | 73 | 34 | 0.0 | 0.0 | 0.00 | 0.00 | 0.00 | 77 | 1012.9 |
| 20260831183735 | 74 | 34 | 0.0 | 0.0 | 0.00 | 0.00 | 0.00 | 77 | 1012.9 |
| 20260831183249 | 74 | 21 | 0.0 | 0.0 | 0.00 | 0.00 | 0.00 | 77 | 1012.9 |
| 20260831183135 | 74 | 19 | 0.0 | 0.0 | 0.00 | 0.00 | 0.00 | 77 | 1012.9 |
| 20260831182752 | 74 | 34 | 0.0 | 0.0 | 0.00 | 0.00 | 0.00 | 77 | 1012.9 |
| 20260831182243 | 74 | 32 | 0.0 | 0.0 | 0.00 | 0.00 | 0.00 | 77 | 1012.9 |
| 20260831181235 | 74 | 39 | 0.0 | 0.0 | 0.00 | 0.00 | 0.00 | 76 | 1012.9 |
| 20260831180754 | 74 | 38 | 0.0 | 0.0 | 0.00 | 0.00 | 0.00 | 76 | 1012.9 |
| 20260831180252 | 74 | 39 | 0.0 | 0.0 | 0.00 | 0.00 | 0.00 | 76 | 1012.9 |
| 20260831180136 | 74 | 39 | 0.0 | 0.0 | 0.00 | 0.00 | 0.00 | 76 | 1012.9 |
| 20260831175739 | 74 | 39 | 0.0 | 0.0 | 0.00 | 0.00 | 0.00 | 76 | 1013.0 |
| 20260831175249 | 74 | 39 | 0.0 | 0.0 | 0.00 | 0.00 | 0.00 | 76 | 1013.0 |
| 20260831173752 | 74 | 39 | 0.0 | 0.0 | 0.00 | 0.00 | 0.00 | 76 | 1013.1 |
| 20260831173251 | 74 | 39 | 0.0 | 0.0 | 0.00 | 0.00 | 0.00 | 76 | 1013.1 |
| 20260831173134 | 74 | 39 | 0.0 | 0.0 | 0.00 | 0.00 | 0.00 | 76 | 1013.1 |
| 20260831172735 | 74 | 39 | 0.0 | 0.0 | 0.00 | 0.00 | 0.00 | 76 | 1013.2 |
| 20260831172244 | 74 | 39 | 0.0 | 0.0 | 0.00 | 0.00 | 0.00 | 76 | 1013.2 |
| 20260831171739 | 74 | 39 | 0.0 | 0.0 | 0.00 | 0.00 | 0.00 | 76 | 1013.2 |
| 20260831171248 | 74 | 39 | 0.0 | 0.0 | 0.00 | 0.00 | 0.00 | 76 | 1013.0 |
| 20260831170743 | 74 | 39 | 0.0 | 0.0 | 0.00 | 0.00 | 0.00 | 76 | 1013.0 |
| 20260831165752 | 74 | 39 | 0.0 | 0.0 | 0.00 | 0.00 | 0.00 | 76 | 1013.1 |
| 20260831165242 | 74 | 39 | 0.0 | 0.0 | 0.00 | 0.00 | 0.00 | 76 | 1013.1 |
| 20260831164738 | 74 | 39 | 0.0 | 0.0 | 0.00 | 0.00 | 0.00 | 76 | 1013.1 |
| 20260831164249 | 74 | 39 | 0.0 | 0.0 | 0.00 | 0.00 | 0.00 | 76 | 1013.1 |
| 20260831163739 | 74 | 39 | 0.0 | 0.0 | 0.00 | 0.00 | 0.00 | 77 | 1013.1 |
| 20260831163239 | 74 | 39 | 0.0 | 0.0 | 0.00 | 0.00 | 0.00 | 76 | 1013.1 |
| 20260831163143 | 74 | 39 | 0.0 | 0.0 | 0.00 | 0.00 | 0.00 | 76 | 1013.1 |
| 20260831162747 | 74 | 39 | 0.0 | 0.0 | 0.00 | 0.00 | 0.00 | 76 | 1012.9 |
| 20260831162238 | 74 | 39 | 0.0 | 0.0 | 0.00 | 0.00 | 0.00 | 76 | 1012.9 |
| 20260831161752 | 74 | 39 | 0.0 | 0.0 | 0.00 | 0.00 | 0.00 | 76 | 1012.9 |
| 20260831161243 | 74 | 39 | 0.0 | 0.0 | 0.00 | 0.00 | 0.00 | 76 | 1012.9 |
| 20260831160737 | 74 | 39 | 0.0 | 0.0 | 0.00 | 0.00 | 0.00 | 76 | 1012.9 |
| 20260831160249 | 74 | 39 | 0.0 | 0.0 | 0.00 | 0.00 | 0.00 | 75 | 1012.9 |
| 20260831155737 | 74 | 39 | 0.0 | 0.0 | 0.00 | 0.00 | 0.00 | 75 | 1012.9 |
| 20260831155247 | 74 | 39 | 0.0 | 0.0 | 0.00 | 0.00 | 0.00 | 75 | 1012.9 |
| 20260831154742 | 74 | 39 | 0.0 | 0.0 | 0.00 | 0.00 | 0.00 | 75 | 1012.9 |
| 20260831154250 | 74 | 39 | 0.0 | 0.0 | 0.00 | 0.00 | 0.00 | 75 | 1013.0 |
| 20260831153741 | 75 | 39 | 0.0 | 0.0 | 0.00 | 0.00 | 0.00 | 75 | 1013.0 |
| 20260831153238 | 75 | 39 | 0.0 | 0.0 | 0.00 | 0.00 | 0.00 | 75 | 1013.0 |
| 20260831153142 | 75 | 39 | 0.0 | 0.0 | 0.00 | 0.00 | 0.00 | 75 | 1013.0 |
| 20260831152741 | 75 | 39 | 0.0 | 0.0 | 0.00 | 0.00 | 0.00 | 74 | 1013.2 |
| 20260831152250 | 75 | 39 | 0.0 | 0.0 | 0.00 | 0.00 | 0.00 | 74 | 1013.2 |
| 20260831151238 | 75 | 39 | 0.0 | 0.0 | 0.00 | 0.00 | 0.00 | 74 | 1013.2 |
| 20260831150258 | 75 | 39 | 0.0 | 0.0 | 0.00 | 0.00 | 0.00 | 73 | 1013.2 |
| 20260831145746 | 75 | 39 | 0.0 | 0.0 | 0.00 | 0.00 | 0.00 | 73 | 1013.1 |
| 20260831145236 | 75 | 39 | 0.0 | 0.0 | 0.00 | 0.00 | 0.00 | 73 | 1013.1 |
| 20260831144750 | 75 | 39 | 0.0 | 0.0 | 0.00 | 0.00 | 0.00 | 72 | 1013.1 |
| 20260831143750 | 75 | 41 | 0.0 | 0.0 | 0.00 | 0.00 | 0.00 | 72 | 1012.9 |
| 20260831143247 | 75 | 41 | 0.0 | 0.0 | 0.00 | 0.00 | 0.00 | 72 | 1012.9 |
| 20260831143130 | 75 | 39 | 0.0 | 0.0 | 0.00 | 0.00 | 0.00 | 72 | 1012.9 |
| 20260831142752 | 75 | 41 | 0.0 | 0.0 | 0.00 | 0.00 | 0.00 | 72 | 1012.9 |
| 20260831142242 | 75 | 41 | 0.0 | 0.0 | 0.00 | 0.00 | 0.00 | 72 | 1012.9 |
| 20260831141736 | 75 | 42 | 0.0 | 0.0 | 0.00 | 0.00 | 0.00 | 73 | 1012.9 |
| 20260831141243 | 75 | 43 | 0.0 | 0.0 | 0.00 | 0.00 | 0.00 | 72 | 1013.0 |
| 20260831140143 | 75 | 42 | 0.0 | 0.0 | 0.00 | 0.00 | 0.00 | 72 | 1013.0 |
| 20260831135738 | 75 | 34 | 0.0 | 0.0 | 0.00 | 0.00 | 0.00 | 72 | 1013.1 |
| 20260831134252 | 75 | 19 | 0.0 | 0.0 | 0.00 | 0.00 | 0.00 | 72 | 1012.9 |
| 20260831133740 | 75 | 18 | 0.0 | 0.0 | 0.00 | 0.00 | 0.00 | 72 | 1012.9 |
| 20260831133132 | 75 | 18 | 0.0 | 0.0 | 0.00 | 0.00 | 0.00 | 72 | 1012.9 |
| 20260831132751 | 75 | 18 | 0.0 | 0.0 | 0.00 | 0.00 | 0.00 | 72 | 1012.9 |
| 20260831132239 | 75 | 18 | 0.0 | 0.0 | 0.00 | 0.00 | 0.00 | 72 | 1012.9 |
| 20260831130245 | 75 | 31 | 0.0 | 0.0 | 0.00 | 0.00 | 0.00 | 71 | 1012.9 |
| 20260831130131 | 75 | 31 | 0.0 | 0.0 | 0.00 | 0.00 | 0.00 | 71 | 1012.9 |
| 20260831125752 | 75 | 32 | 0.0 | 0.0 | 0.00 | 0.00 | 0.00 | 71 | 1012.8 |
| 20260831124738 | 76 | 41 | 0.0 | 0.0 | 0.00 | 0.00 | 0.00 | 71 | 1012.8 |
| 20260831123741 | 76 | 41 | 0.0 | 0.0 | 0.00 | 0.00 | 0.00 | 70 | 1012.7 |
| 20260831123252 | 76 | 41 | 0.0 | 0.0 | 0.00 | 0.00 | 0.00 | 70 | 1012.7 |
| 20260831123139 | 76 | 41 | 0.0 | 0.0 | 0.00 | 0.00 | 0.00 | 70 | 1012.7 |
| 20260831122735 | 76 | 41 | 0.0 | 0.0 | 0.00 | 0.00 | 0.00 | 70 | 1012.7 |
| 20260831122244 | 76 | 41 | 0.0 | 0.0 | 0.00 | 0.00 | 0.00 | 70 | 1012.7 |
| 20260831121736 | 76 | 41 | 0.0 | 0.0 | 0.00 | 0.00 | 0.00 | 69 | 1012.7 |
| 20260831121245 | 76 | 41 | 0.0 | 0.0 | 0.00 | 0.00 | 0.00 | 69 | 1012.7 |
| 20260831120741 | 76 | 41 | 0.0 | 0.0 | 0.00 | 0.00 | 0.00 | 68 | 1012.7 |
| 20260831120237 | 76 | 49 | 0.0 | 0.0 | 0.00 | 0.00 | 0.00 | 68 | 1012.7 |
| 20260831120140 | 76 | 48 | 0.0 | 0.0 | 0.00 | 0.00 | 0.00 | 68 | 1012.7 |
| 20260831115237 | 76 | 42 | 0.0 | 0.0 | 0.00 | 0.00 | 0.00 | 67 | 1012.7 |
| 20260831114744 | 76 | 48 | 0.0 | 0.0 | 0.00 | 0.00 | 0.00 | 67 | 1012.7 |
| 20260831114252 | 76 | 89 | 0.0 | 0.0 | 0.00 | 0.00 | 0.00 | 67 | 1012.7 |
| 20260831113739 | 76 | 62 | 0.0 | 0.0 | 0.00 | 0.00 | 0.00 | 66 | 1012.7 |
| 20260831113254 | 76 | 56 | 0.0 | 0.0 | 0.00 | 0.00 | 0.00 | 66 | 1012.7 |
| 20260831113138 | 76 | 73 | 0.0 | 0.0 | 0.00 | 0.00 | 0.00 | 66 | 1012.7 |
| 20260831112738 | 76 | 76 | 0.0 | 0.0 | 0.00 | 0.00 | 0.00 | 66 | 1012.7 |
| 20260831112245 | 76 | 45 | 0.0 | 0.0 | 0.00 | 0.00 | 0.00 | 65 | 1012.7 |
| 20260831111250 | 77 | 106 | 0.0 | 0.0 | 0.00 | 0.00 | 0.00 | 65 | 1012.4 |
| 20260831110745 | 77 | 67 | 0.0 | 0.0 | 0.00 | 0.00 | 0.00 | 65 | 1012.4 |
| 20260831110137 | 77 | 56 | 0.0 | 0.0 | 0.00 | 0.00 | 0.00 | 65 | 1012.4 |
| 20260831105754 | 77 | 46 | 0.0 | 0.0 | 0.00 | 0.00 | 0.00 | 65 | 1012.2 |
| 20260831105243 | 77 | 103 | 0.0 | 0.0 | 0.00 | 0.00 | 0.00 | 66 | 1012.2 |
| 20260831104249 | 77 | 52 | 0.0 | 0.0 | 0.00 | 0.00 | 0.00 | 66 | 1011.8 |
| 20260831103241 | 77 | 62 | 0.0 | 0.0 | 0.00 | 0.00 | 0.00 | 66 | 1011.8 |
| 20260831103145 | 77 | 42 | 0.0 | 0.0 | 0.00 | 0.00 | 0.00 | 66 | 1011.8 |
| 20260831101749 | 77 | 55 | 0.0 | 0.0 | 0.00 | 0.00 | 0.00 | 67 | 1011.7 |
| 20260831101237 | 77 | 93 | 0.0 | 0.0 | 0.00 | 0.00 | 0.00 | 68 | 1011.6 |
| 20260831100750 | 77 | 91 | 0.0 | 0.0 | 0.00 | 0.00 | 0.00 | 68 | 1011.6 |
| 20260831100246 | 77 | 65 | 0.0 | 0.0 | 0.00 | 0.00 | 0.00 | 68 | 1011.6 |
| 20260831100129 | 77 | 86 | 0.0 | 0.0 | 0.00 | 0.00 | 0.00 | 68 | 1011.6 |
| 20260831095752 | 77 | 50 | 0.0 | 0.0 | 0.00 | 0.00 | 0.00 | 68 | 1011.4 |
| 20260831095245 | 77 | 98 | 0.0 | 0.0 | 0.00 | 0.00 | 0.00 | 68 | 1011.4 |
| 20260831094740 | 77 | 58 | 0.0 | 0.0 | 0.00 | 0.00 | 0.00 | 69 | 1011.4 |
| 20260831094252 | 77 | 59 | 0.0 | 0.0 | 0.00 | 0.00 | 0.00 | 69 | 1011.1 |
| 20260831093739 | 77 | 60 | 0.0 | 0.0 | 0.00 | 0.00 | 0.00 | 69 | 1011.1 |
| 20260831093255 | 77 | 52 | 0.0 | 0.0 | 0.00 | 0.00 | 0.00 | 68 | 1011.1 |
| 20260831092744 | 77 | 46 | 0.0 | 0.0 | 0.00 | 0.00 | 0.00 | 68 | 1010.9 |
| 20260831092250 | 77 | 74 | 0.0 | 0.0 | 0.00 | 0.00 | 0.00 | 68 | 1010.9 |
| 20260831091743 | 77 | 52 | 0.0 | 0.0 | 0.00 | 0.00 | 0.00 | 69 | 1010.9 |
| 20260831090740 | 78 | 17 | 0.0 | 0.0 | 0.00 | 0.00 | 0.00 | 69 | 1010.8 |
| 20260831090256 | 78 | 52 | 0.0 | 0.0 | 0.00 | 0.00 | 0.00 | 69 | 1010.8 |
| 20260831090141 | 78 | 74 | 0.0 | 0.0 | 0.00 | 0.00 | 0.00 | 69 | 1010.8 |
| 20260831084746 | 78 | 83 | 0.0 | 0.0 | 0.00 | 0.00 | 0.00 | 68 | 1010.6 |
| 20260831084236 | 79 | 97 | 0.0 | 0.0 | 0.00 | 0.00 | 0.00 | 68 | 1010.4 |
| 20260831083743 | 79 | 48 | 0.0 | 0.0 | 0.00 | 0.00 | 0.00 | 67 | 1010.4 |
| 20260831083240 | 79 | 142 | 0.0 | 0.0 | 0.00 | 0.00 | 0.00 | 66 | 1010.4 |
| 20260831083144 | 79 | 90 | 0.0 | 0.0 | 0.00 | 0.00 | 0.00 | 66 | 1010.4 |
| 20260831082744 | 80 | 58 | 0.0 | 0.0 | 0.00 | 0.00 | 0.00 | 65 | 1010.3 |
| 20260831082254 | 80 | 63 | 0.0 | 0.0 | 0.00 | 0.00 | 0.00 | 64 | 1010.3 |
| 20260831081744 | 80 | 104 | 0.0 | 0.0 | 0.00 | 0.00 | 0.00 | 64 | 1010.3 |
| 20260831081253 | 80 | 96 | 0.0 | 0.0 | 0.00 | 0.00 | 0.00 | 64 | 1010.1 |
| 20260831080745 | 80 | 90 | 0.0 | 0.0 | 0.00 | 0.00 | 0.00 | 64 | 1010.1 |
| 20260831080257 | 80 | 59 | 0.0 | 0.0 | 0.00 | 0.00 | 0.00 | 63 | 1010.1 |
| 20260831075742 | 81 | 103 | 0.0 | 0.0 | 0.00 | 0.00 | 0.00 | 63 | 1010.0 |
| 20260831075251 | 81 | 108 | 0.0 | 0.0 | 0.00 | 0.00 | 0.00 | 63 | 1010.0 |
| 20260831074746 | 81 | 59 | 0.0 | 0.0 | 0.00 | 0.00 | 0.00 | 62 | 1010.0 |
| 20260831074253 | 81 | 53 | 0.0 | 0.0 | 0.00 | 0.00 | 0.00 | 63 | 1009.9 |
| 20260831073743 | 81 | 53 | 0.0 | 0.0 | 0.00 | 0.00 | 0.00 | 62 | 1009.9 |
| 20260831073239 | 81 | 93 | 0.0 | 0.0 | 0.00 | 0.00 | 0.00 | 63 | 1009.9 |
| 20260831073143 | 81 | 59 | 0.0 | 0.0 | 0.00 | 0.00 | 0.00 | 63 | 1009.9 |
| 20260831072241 | 81 | 55 | 0.0 | 0.0 | 0.00 | 0.00 | 0.00 | 63 | 1009.7 |
| 20260831071750 | 81 | 55 | 0.0 | 0.0 | 0.00 | 0.00 | 0.00 | 62 | 1009.7 |
| 20260831071236 | 81 | 62 | 0.0 | 0.0 | 0.00 | 0.00 | 0.00 | 62 | 1009.6 |
| 20260831070139 | 81 | 60 | 0.0 | 0.0 | 0.00 | 0.00 | 0.00 | 62 | 1009.6 |
| 20260831065740 | 81 | 107 | 0.0 | 0.0 | 0.00 | 0.00 | 0.00 | 64 | 1009.6 |
| 20260831065249 | 81 | 108 | 0.0 | 0.0 | 0.00 | 0.00 | 0.00 | 65 | 1009.6 |
| 20260831064740 | 81 | 108 | 0.0 | 0.0 | 0.00 | 0.00 | 0.00 | 65 | 1009.6 |
| 20260831064248 | 81 | 108 | 0.0 | 0.0 | 0.00 | 0.00 | 0.00 | 64 | 1009.6 |
| 20260831063736 | 81 | 108 | 0.0 | 0.0 | 0.00 | 0.00 | 0.00 | 64 | 1009.6 |
| 20260831063138 | 81 | 108 | 0.0 | 0.0 | 0.00 | 0.00 | 0.00 | 64 | 1009.6 |
| 20260831062739 | 81 | 108 | 0.0 | 0.0 | 0.00 | 0.00 | 0.00 | 65 | 1009.6 |
| 20260831062248 | 81 | 108 | 0.0 | 0.0 | 0.00 | 0.00 | 0.00 | 65 | 1009.6 |
| 20260831061743 | 82 | 108 | 0.0 | 0.0 | 0.00 | 0.00 | 0.00 | 63 | 1009.6 |
| 20260831061250 | 82 | 82 | 0.0 | 0.0 | 0.00 | 0.00 | 0.00 | 61 | 1009.5 |
| 20260831060746 | 82 | 79 | 0.0 | 0.0 | 0.00 | 0.00 | 0.00 | 61 | 1009.5 |
| 20260831060132 | 82 | 79 | 0.0 | 0.0 | 0.00 | 0.00 | 0.00 | 62 | 1009.5 |
| 20260831055243 | 82 | 79 | 0.0 | 0.0 | 0.00 | 0.00 | 0.00 | 62 | 1009.5 |
| 20260831054755 | 82 | 79 | 0.0 | 0.0 | 0.00 | 0.00 | 0.00 | 62 | 1009.5 |
| 20260831054243 | 82 | 100 | 0.0 | 0.0 | 0.00 | 0.00 | 0.00 | 62 | 1009.6 |
| 20260831053751 | 81 | 98 | 0.0 | 0.0 | 0.00 | 0.00 | 0.00 | 62 | 1009.6 |
| 20260831053249 | 81 | 70 | 0.0 | 0.0 | 0.00 | 0.00 | 0.00 | 63 | 1009.6 |
| 20260831053135 | 81 | 70 | 0.0 | 0.0 | 0.00 | 0.00 | 0.00 | 63 | 1009.6 |
| 20260831052737 | 81 | 70 | 0.0 | 0.0 | 0.00 | 0.00 | 0.00 | 62 | 1009.6 |
| 20260831052245 | 82 | 63 | 0.0 | 0.0 | 0.00 | 0.00 | 0.00 | 62 | 1009.7 |
| 20260831051737 | 82 | 63 | 0.0 | 0.0 | 0.00 | 0.00 | 0.00 | 62 | 1009.7 |
| 20260831051245 | 82 | 63 | 0.0 | 0.0 | 0.00 | 0.00 | 0.00 | 62 | 1009.7 |
| 20260831050239 | 82 | 63 | 0.0 | 0.0 | 0.00 | 0.00 | 0.00 | 61 | 1009.7 |
| 20260831050142 | 82 | 63 | 0.0 | 0.0 | 0.00 | 0.00 | 0.00 | 61 | 1009.7 |
| 20260831045742 | 82 | 62 | 0.0 | 0.0 | 0.00 | 0.00 | 0.00 | 61 | 1009.7 |
| 20260831045252 | 82 | 62 | 0.0 | 0.0 | 0.00 | 0.00 | 0.00 | 61 | 1009.7 |
| 20260831044743 | 82 | 69 | 0.0 | 0.0 | 0.00 | 0.00 | 0.00 | 60 | 1009.7 |
| 20260831044250 | 82 | 76 | 0.0 | 0.0 | 0.00 | 0.00 | 0.00 | 60 | 1009.8 |
| 20260831043144 | 82 | 60 | 0.0 | 0.0 | 0.00 | 0.00 | 0.00 | 60 | 1009.8 |
| 20260831042238 | 82 | 65 | 0.0 | 0.0 | 0.00 | 0.00 | 0.00 | 60 | 1009.6 |
| 20260831041750 | 82 | 56 | 0.0 | 0.0 | 0.00 | 0.00 | 0.00 | 61 | 1009.6 |
| 20260831041236 | 82 | 52 | 0.0 | 0.0 | 0.00 | 0.00 | 0.00 | 61 | 1009.7 |
| 20260831040748 | 82 | 53 | 0.0 | 0.0 | 0.00 | 0.00 | 0.00 | 60 | 1009.7 |
| 20260831040244 | 82 | 65 | 0.0 | 0.0 | 0.00 | 0.00 | 0.00 | 61 | 1009.7 |
| 20260831040128 | 82 | 58 | 0.0 | 0.0 | 0.00 | 0.00 | 0.00 | 61 | 1009.7 |
| 20260831035748 | 82 | 58 | 0.0 | 0.0 | 0.00 | 0.00 | 0.00 | 61 | 1009.7 |
| 20260831034755 | 82 | 58 | 0.0 | 0.0 | 0.00 | 0.00 | 0.00 | 60 | 1009.7 |
| 20260831033742 | 82 | 59 | 0.0 | 0.0 | 0.00 | 0.00 | 0.00 | 60 | 1009.8 |
| 20260831033236 | 82 | 63 | 0.0 | 0.0 | 0.00 | 0.00 | 0.00 | 59 | 1009.8 |
| 20260831033129 | 82 | 114 | 0.0 | 0.0 | 0.00 | 0.00 | 0.00 | 59 | 1009.8 |
| 20260831032745 | 82 | 76 | 0.0 | 0.0 | 0.00 | 0.00 | 0.00 | 60 | 1010.0 |
| 20260831032253 | 82 | 76 | 0.0 | 0.0 | 0.00 | 0.00 | 0.00 | 60 | 1010.0 |
| 20260831031744 | 82 | 354 | 0.0 | 0.0 | 0.00 | 0.00 | 0.00 | 61 | 1010.0 |
| 20260831031240 | 81 | 353 | 0.0 | 0.0 | 0.00 | 0.00 | 0.00 | 61 | 1010.1 |
| 20260831030739 | 81 | 353 | 0.0 | 0.0 | 0.00 | 0.00 | 0.00 | 62 | 1010.1 |
| 20260831030256 | 81 | 353 | 0.0 | 0.0 | 0.00 | 0.00 | 0.00 | 62 | 1010.1 |
| 20260831030139 | 81 | 353 | 0.0 | 0.0 | 0.00 | 0.00 | 0.00 | 62 | 1010.1 |
| 20260831025738 | 81 | 354 | 0.0 | 0.0 | 0.00 | 0.00 | 0.00 | 62 | 1010.2 |
| 20260831024741 | 81 | 351 | 0.0 | 0.0 | 0.00 | 0.00 | 0.00 | 63 | 1010.2 |
| 20260831024249 | 80 | 353 | 0.0 | 0.0 | 0.00 | 0.00 | 0.00 | 63 | 1010.3 |
| 20260831023737 | 80 | 358 | 0.0 | 0.0 | 0.00 | 0.00 | 0.00 | 64 | 1010.3 |
| 20260831023254 | 80 | 353 | 0.0 | 0.0 | 0.00 | 0.00 | 0.00 | 65 | 1010.3 |
| 20260831023138 | 80 | 353 | 0.0 | 0.0 | 0.00 | 0.00 | 0.00 | 65 | 1010.3 |
| 20260831022738 | 79 | 353 | 0.0 | 0.0 | 0.00 | 0.00 | 0.00 | 65 | 1010.2 |
| 20260831022245 | 79 | 354 | 0.0 | 0.0 | 0.00 | 0.00 | 0.00 | 65 | 1010.2 |
| 20260831021740 | 79 | 38 | 0.0 | 0.0 | 0.00 | 0.00 | 0.00 | 66 | 1010.2 |
| 20260831021248 | 79 | 31 | 0.0 | 0.0 | 0.00 | 0.00 | 0.00 | 66 | 1010.3 |
| 20260831020129 | 79 | 38 | 0.0 | 0.0 | 0.00 | 0.00 | 0.00 | 67 | 1010.3 |
| 20260831015749 | 78 | 56 | 0.0 | 0.0 | 0.00 | 0.00 | 0.00 | 66 | 1010.1 |
| 20260831015237 | 79 | 348 | 0.0 | 0.0 | 0.00 | 0.00 | 0.00 | 66 | 1010.1 |
| 20260831014752 | 79 | 357 | 0.0 | 0.0 | 0.00 | 0.00 | 0.00 | 66 | 1010.1 |
| 20260831014241 | 79 | 358 | 0.0 | 0.0 | 0.00 | 0.00 | 0.00 | 66 | 1010.2 |
| 20260831013748 | 79 | 340 | 0.0 | 0.0 | 0.00 | 0.00 | 0.00 | 65 | 1010.2 |
| 20260831013244 | 79 | 1 | 0.0 | 0.0 | 0.00 | 0.00 | 0.00 | 65 | 1010.2 |
| 20260831013128 | 79 | 353 | 0.0 | 0.0 | 0.00 | 0.00 | 0.00 | 65 | 1010.2 |
| 20260831012748 | 79 | 8 | 0.0 | 0.0 | 0.00 | 0.00 | 0.00 | 65 | 1010.1 |
| 20260831012235 | 79 | 45 | 0.0 | 0.0 | 0.00 | 0.00 | 0.00 | 65 | 1010.1 |